DW8248 Weather Reports


Display with metric or nautical units.
time (UTC)temp
F
wind
direction
speed
MPH
gust
MPH
rain 1hr
in
rain 24hr
in
rain mn
in
humidity
%
barometer
mb
20260508050014 80 279 5.0 7.0 0.00 0.00 0.00 63 1013.9
20260508045012 80 288 5.0 7.0 0.00 0.00 0.00 65 1013.8
20260508042844 80 258 4.0 6.0 0.00 0.00 0.00 73 1013.6
20260508041817 79 252 3.0 6.0 0.00 0.00 0.00 77 1013.6
20260508040743 79 238 4.0 5.0 0.00 0.00 0.00 77 1013.4
20260508035713 79 234 3.0 5.0 0.00 0.00 0.00 79 1013.5
20260508034708 79 215 4.0 6.0 0.00 0.00 0.00 78 1013.5
20260508033702 79 220 5.0 7.0 0.00 0.00 0.00 79 1013.6
20260508032641 79 201 6.0 7.0 0.00 0.00 0.00 79 1013.5
20260508031613 80 221 6.0 8.0 0.00 0.00 0.00 79 1013.5
20260508030553 80 201 7.0 9.0 0.00 0.00 0.00 79 1013.5
20260508025606 80 195 7.0 9.0 0.00 0.00 0.00 78 1013.5
20260508023423 80 202 8.0 10.0 0.00 0.00 0.00 79 1013.3
20260508021259 80 185 8.0 11.0 0.00 0.00 0.00 78 1013.2
20260508015122 81 176 8.0 13.0 0.00 0.00 0.00 78 1012.9
20260508011815 81 153 7.0 11.0 0.00 0.00 0.00 79 1012.8
20260508010827 81 139 7.0 11.0 0.00 0.00 0.00 78 1012.7
20260508005847 81 161 7.0 13.0 0.00 0.00 0.00 79 1012.7
20260508004851 81 154 9.0 13.0 0.00 0.00 0.00 79 1012.7
20260508002758 81 140 8.0 16.0 0.00 0.00 0.00 79 1012.7
20260508001811 81 132 10.0 16.0 0.00 0.00 0.00 79 1012.7
20260508000733 81 150 10.0 18.0 0.00 0.00 0.00 79 1012.6
20260507235709 81 152 10.0 19.0 0.00 0.00 0.00 79 1012.5
20260507234637 81 148 10.0 20.0 0.00 0.00 0.00 78 1012.5
20260507232500 82 148 10.0 17.0 0.00 0.00 0.00 77 1012.5
20260507231515 82 144 8.0 14.0 0.00 0.00 0.00 78 1012.5
20260507230455 82 123 7.0 14.0 0.00 0.00 0.00 77 1012.5
20260507225424 82 153 7.0 15.0 0.00 0.00 0.00 76 1012.4
20260507223224 82 133 8.0 14.0 0.00 0.00 0.00 75 1012.3
20260507222241 83 158 8.0 14.0 0.00 0.00 0.00 75 1012.3
20260507221220 83 113 7.0 13.0 0.00 0.00 0.00 74 1012.4
20260507220206 83 133 7.0 13.0 0.00 0.00 0.00 73 1012.4
20260507215147 83 124 8.0 13.0 0.00 0.00 0.00 73 1012.4
20260507214122 82 128 8.0 13.0 0.00 0.00 0.00 74 1012.4
20260507205736 83 152 8.0 14.0 0.00 0.00 0.00 74 1012.7
20260507203549 83 124 8.0 14.0 0.00 0.00 0.00 74 1012.7
20260507202520 83 151 8.0 14.0 0.00 0.00 0.00 74 1012.8
20260507201454 83 133 8.0 14.0 0.00 0.00 0.00 75 1012.9
20260507200429 83 132 7.0 12.0 0.00 0.00 0.00 74 1013.1
20260507195356 83 98 7.0 13.0 0.00 0.00 0.00 75 1013.3
20260507194354 83 112 8.0 14.0 0.00 0.00 0.00 74 1013.4
20260507192231 82 121 7.0 13.0 0.00 0.00 0.00 74 1013.4
20260507191211 82 118 7.0 13.0 0.00 0.00 0.00 74 1013.8
20260507185057 83 96 6.0 10.0 0.00 0.00 0.00 74 1014.1
20260507184042 83 118 5.0 11.0 0.00 0.00 0.00 74 1014.3
20260507183028 82 86 6.0 12.0 0.00 0.00 0.00 73 1014.5
20260507181951 83 131 7.0 12.0 0.00 0.00 0.00 73 1014.6
20260507180935 83 103 6.0 11.0 0.00 0.00 0.00 69 1014.7
20260507174758 82 77 6.0 11.0 0.00 0.00 0.00 72 1014.8
20260507173738 83 99 6.0 11.0 0.00 0.00 0.00 70 1014.8
20260507172746 82 124 7.0 11.0 0.00 0.00 0.00 74 1014.8
20260507171733 82 123 6.0 11.0 0.00 0.00 0.00 73 1014.9
20260507170742 82 115 6.0 11.0 0.00 0.00 0.00 74 1015.0
20260507164628 82 105 6.0 11.0 0.00 0.00 0.00 72 1015.1
20260507163629 84 144 5.0 11.0 0.00 0.00 0.00 70 1015.3
20260507161510 84 171 3.0 6.0 0.00 0.00 0.00 67 1015.5
20260507160522 84 173 0.0 0.0 0.00 0.00 0.00 65 1015.6
20260507155454 83 187 2.0 5.0 0.00 0.00 0.00 66 1015.8
20260507154459 83 202 2.0 6.0 0.00 0.00 0.00 68 1015.8
20260507152318 82 200 5.0 8.0 0.00 0.00 0.00 68 1015.9
20260507151338 82 211 6.0 11.0 0.00 0.00 0.00 69 1016.0
20260507145201 81 193 8.0 10.0 0.00 0.00 0.00 71 1016.1
20260507144153 81 205 8.0 10.0 0.00 0.00 0.00 70 1016.1
20260507143206 80 211 8.0 10.0 0.00 0.00 0.00 70 1016.1
20260507142140 80 205 8.0 10.0 0.00 0.00 0.00 72 1016.2
20260507141111 80 218 8.0 10.0 0.00 0.00 0.00 72 1016.1
20260507140055 80 205 8.0 12.0 0.00 0.00 0.00 71 1016.3
20260507135058 79 215 9.0 12.0 0.00 0.00 0.00 69 1016.2
20260507134030 79 192 7.0 11.0 0.00 0.00 0.00 72 1016.1
20260507133034 78 186 6.0 9.0 0.00 0.00 0.00 74 1016.1
20260507131003 77 176 4.0 6.0 0.00 0.00 0.00 77 1016.2
20260507125933 77 176 4.0 6.0 0.00 0.00 0.00 77 1016.3
20260507124948 76 178 4.0 6.0 0.00 0.00 0.00 78 1016.3
20260507123924 76 203 6.0 7.0 0.00 0.00 0.00 78 1016.3
20260507122859 75 200 6.0 8.0 0.00 0.00 0.00 80 1016.3
20260507121847 75 190 5.0 8.0 0.00 0.00 0.00 80 1016.2
20260507115730 74 198 4.0 6.0 0.00 0.00 0.00 82 1016.2
20260507114746 74 209 3.0 4.0 0.00 0.00 0.00 83 1016.2
20260507113724 74 213 4.0 5.0 0.00 0.00 0.00 83 1016.1
20260507112719 73 215 4.0 5.0 0.00 0.00 0.00 83 1016.0
20260507111718 73 233 5.0 7.0 0.00 0.00 0.00 83 1015.9
20260507110717 73 228 5.0 7.0 0.00 0.00 0.00 82 1015.8
20260507105649 73 223 6.0 9.0 0.00 0.00 0.00 81 1015.8
20260507104701 74 232 5.0 9.0 0.00 0.00 0.00 81 1015.6
20260507103633 74 214 4.0 6.0 0.00 0.00 0.00 81 1015.6
20260507102615 74 211 4.0 6.0 0.00 0.00 0.00 81 1015.5
20260507101623 74 219 5.0 8.0 0.00 0.00 0.00 81 1015.4
20260507100630 74 229 6.0 8.0 0.00 0.00 0.00 81 1015.0
20260507095647 74 210 6.0 8.0 0.00 0.00 0.00 80 1014.8
20260507094629 74 200 4.0 6.0 0.00 0.00 0.00 80 1014.8
20260507093553 74 184 3.0 5.0 0.00 0.00 0.00 81 1014.7
20260507092533 74 208 3.0 4.0 0.00 0.00 0.00 81 1014.8
20260507091555 74 221 2.0 4.0 0.00 0.00 0.00 81 1014.9
20260507085425 74 227 0.0 0.0 0.00 0.00 0.00 81 1014.7
20260507084416 74 219 2.0 5.0 0.00 0.00 0.00 81 1014.5
20260507083354 74 212 3.0 5.0 0.00 0.00 0.00 81 1014.4
20260507082323 74 209 3.0 4.0 0.00 0.00 0.00 81 1014.4
20260507081332 74 195 3.0 4.0 0.00 0.00 0.00 81 1014.4
20260507080257 74 216 2.0 4.0 0.00 0.00 0.00 81 1014.4
20260507075244 74 223 2.0 3.0 0.00 0.00 0.00 81 1014.4
20260507074208 74 205 3.0 4.0 0.00 0.00 0.00 81 1014.5
20260507073206 74 209 3.0 5.0 0.00 0.00 0.00 81 1014.6
20260507071055 75 212 6.0 7.0 0.00 0.00 0.00 81 1014.8
20260507070032 75 190 4.0 7.0 0.00 0.00 0.00 81 1014.8
20260507065026 75 193 3.0 6.0 0.00 0.00 0.00 80 1015.0
20260507064000 75 243 5.0 7.0 0.00 0.00 0.00 80 1015.2
20260507062952 75 248 4.0 7.0 0.00 0.00 0.00 80 1015.4
20260507062010 75 232 4.0 6.0 0.00 0.00 0.00 79 1015.4
20260507061006 76 237 5.0 7.0 0.00 0.00 0.00 79 1015.4
20260507060014 76 209 5.0 7.0 0.00 0.00 0.00 79 1015.4
20260507054957 76 193 6.0 8.0 0.00 0.00 0.00 79 1015.4
20260507053946 76 216 6.0 10.0 0.00 0.00 0.00 78 1015.6
20260507052911 77 228 7.0 11.0 0.00 0.00 0.00 77 1015.7
20260507051847 79 232 7.0 12.0 0.00 0.00 0.00 75 1015.9
20260507050817 79 158 6.0 12.0 0.00 0.00 0.00 74 1016.0